Back to catalog

FREGAT DEB

LostUNKNOWN
NORAD 46097·DEBRIS·🇷🇺 Russia

Launched Jul 18, 2011 from Baikonur Cosmodrome

Loading…

Next Passes (next 24 hours)

TLE

StaleSource: Space-Track

Epoch: Apr 20, 2022, 22:15 UTC

1 46097U 11037JG  22110.92777731  .00107668  00000-0  59074+0 0  9999
2 46097  51.1608 292.7421 2175586 168.7205 197.1751  9.68766023 59461

Track FREGAT DEB in real time with AllMySat

Download on the App Store